Location: Zihuatanejo
(17.6330°N, 101.5500°W)
Time: 09:46:47
(UTC-05:00)

Daily predictions for brighter satellites

Satellite Brightness Start Highest point End
(mag) Time Altitude Azimuth Time Altitude Azimuth Time Altitude Azimuth
ATLAS 3B CENTAUR R/B 4.0 19:45:58 10° W 19:52:19 59° N 20:10:23 10° ENE
USA 234 4.4 19:53:31 10° E 19:58:26 23° NE 20:03:21 10° N
Cosmos 2058 Rocket 3.0 19:54:21 10° S 19:58:41 84° E 20:03:02 10° N
Cosmos 1943 Rocket 2.2 19:58:24 10° N 20:04:00 68° ENE 20:09:35 10° SSE
Cosmos 1953 Rocket 3.7 20:00:43 10° N 20:04:55 52° E 20:09:07 10° SSE
SL-08 ROCKET BODY 4.4 20:00:16 10° S 20:06:07 86° E 20:12:02 10° N
Thor Agena Rocket 3.5 20:03:31 10° NNE 20:08:41 73° ESE 20:13:46 10° S
Cosmos 1900 4.4 20:05:39 10° SSW 20:10:39 90° WNW 20:15:46 10° NNE
Cosmos 1340 Rocket 2.8 20:07:17 10° N 20:11:22 78° E 20:15:26 10° S
SPOT 3 Rocket 3.5 20:07:09 10° SSE 20:12:15 70° ENE 20:17:22 10° N
Cosmos 990 Rocket 4.1 20:07:26 10° N 20:12:24 50° ENE 20:17:20 10° SSE
Mugunghwa Rocket 4.4 20:04:57 10° WSW 20:12:48 82° NNW 20:19:48 10° ENE
Cosmos 2184 Rocket 4.0 20:07:14 10° S 20:13:24 62° E 20:19:37 10° NNE
Cosmos 1898 Rocket 3.6 20:10:58 10° NNW 20:16:08 82° WSW 20:21:18 10° S
Lacrosse 4 Rocket 3.2 20:14:16 10° SE 20:16:27 13° ESE 20:17:08 13° E
NOAA 12 4.2 20:11:31 10° SSE 20:16:33 50° ENE 20:21:36 10° N
OAO 2 Rocket 4.2 20:15:42 10° WNW 20:20:49 50° SW 20:25:57 10° SE
Cosmos 1825 Rocket 4.3 20:16:53 10° NNW 20:21:14 57° W 20:25:36 10° S
OAO 3 Rocket 3.7 20:19:19 10° WSW 20:24:10 59° NNW 20:28:56 10° NE
Gbstr 26 Del rocket 3.1 20:20:43 10° SSW 20:24:54 63° SE 20:30:01 10° NE
METEOR-M 4.3 20:20:13 10° S 20:25:33 79° WSW 20:30:54 10° NNW
FENGYUN 3A 3.7 20:21:29 10° SSE 20:26:41 55° ENE 20:31:54 10° N
Cosmos 1544 2.9 20:26:30 10° S 20:30:06 80° E 20:33:42 10° N
H-2A R/B 3.7 20:29:04 19° ESE 20:30:27 24° ENE 20:33:30 10° NNE
Meteor 1-24 Rocket 4.1 20:25:11 10° NNE 20:30:33 39° E 20:35:44 10° SSE
Cosmos 2327 Rocket 4.4 20:24:46 10° S 20:30:56 82° E 20:37:01 10° N
SJ-6B 4.0 20:31:26 21° E 20:32:31 24° ENE 20:35:43 10° NNE
OE (NEXTSAT) 4.2 20:29:23 10° NW 20:32:53 84° NE 20:35:12 20° SE
Centaur D-1AR AC-38 3.6 20:26:29 10° W 20:33:52 65° N 20:36:10 21° ENE
Cosmos 1656 Rocket 3.9 20:28:40 10° N 20:34:00 47° ENE 20:39:14 10° SE
Aurora 2 Rocket 4.0 20:29:12 10° WNW 20:35:43 77° SSW 20:42:56 18° ESE
Cosmos 1953 3.1 20:34:12 10° SSE 20:37:39 28° E 20:41:08 10° NNE
SL-27 R/B 3.0 20:39:27 10° SSW 20:42:55 59° WNW 20:46:29 10° N
NOSS 2-1 (E) 4.4 20:39:37 10° S 20:42:17 24° SE 20:42:17 24° SE
Cosmos 292 Rocket 3.7 20:42:21 10° SSW 20:47:10 89° WNW 20:52:02 10° NNE
USA 229 DEB 4.1 20:40:05 10° NNW 20:47:20 71° WSW 20:54:39 10° SSE
USA 229 4.1 20:40:10 10° NNW 20:47:25 72° WSW 20:54:44 10° SSE
NOSS 3-3 (A) 3.9 20:43:32 10° S 20:49:16 54° ESE 20:55:14 10° NE
NOSS 3-3 (C) 3.9 20:43:39 10° S 20:49:22 53° ESE 20:55:19 10° NE
NATO 3D Rocket 4.1 20:42:32 10° W 20:49:55 61° N 20:52:49 29° ENE
NOSS 3-1 (A) 4.5 20:44:37 10° N 20:52:18 44° ENE 20:56:52 25° ESE
Intelsat 5-3 Rocket 3.8 20:53:49 10° W 20:57:40 49° SSW 21:02:19 23° SE
NOSS 3-1 (C) 4.1 20:51:36 10° NNW 20:59:45 68° ENE 21:06:57 16° SE
Cosmos 1356 Rocket 4.2 21:03:25 10° NNW 21:07:37 53° W 21:11:46 10° S
Cosmos 1833 Rocket 2.7 21:02:22 10° S 21:07:51 54° ESE 21:09:31 40° NE
GEOS 3 Rocket 3.8 21:07:38 47° E 21:08:25 51° ESE 21:13:33 10° SSW
Cosmos 1538 Rocket 3.9 21:05:24 10° S 21:10:41 67° ESE 21:13:55 23° NNE
In-Cosmos 22 4.1 21:04:56 10° N 21:10:43 85° E 21:16:28 10° S
ALOS 3.8 21:07:19 10° SSW 21:11:34 36° W 21:15:50 10° NNW
FengYun 1-2 T 4.3 21:09:21 10° S 21:14:59 81° WSW 21:20:34 10° NNW
Milstar 3 Cent rocket 3.3 21:13:14 10° WNW 21:17:54 27° N 21:19:07 24° NNE
Cosmos 2154 Rocket 4.3 21:12:53 10° SSW 21:18:59 64° W 21:25:10 10° N
Centaur D AC-29 2.5 21:08:57 10° W 21:22:37 46° NNW 21:24:06 36° NNE
SWIFT 4.3 21:26:41 10° WSW 21:29:26 21° SSW 21:29:26 21° SSW
Cosmos 2082 Rocket 2.2 21:28:29 10° SSW 21:34:06 78° WNW 21:35:35 50° N
Cosmos 2341 Rocket 4.1 21:28:11 10° S 21:34:20 71° W 21:40:31 10° N
Resurs 01 Rocket 4.3 21:39:31 10° N 21:39:31 10° N 21:39:32 10° N
ATLAS 5 CENTAUR R/B 3.2 21:33:21 10° SW 21:37:22 33° WNW 21:39:22 23° NNW
FALCON 9 R/B 4.2 21:34:31 10° NNW 21:36:10 16° N 21:36:10 16° N
USA 234 3.5 21:38:53 43° S 21:40:59 64° SW 21:47:29 10° NW
Lacrosse 4 Rocket 3.5 21:50:53 10° SW 21:53:38 26° W 21:53:38 26° W
